Location: Cisewo
(53.3833°N, 14.9000°E)
Time: 12:13:21
(UTC+00:00)

Cosmos 1408 - Pass Details

Date: 18 April 2021
Orbit: 467 x 492 km, 82.6° (Epoch: 14 May)

Event Time Altitude Azimuth Distance (km) Brightness Sun altitude
Rises 18:34:44 0° 349° (N) 2,527 6.8 -4.7°
Reaches altitude 10° 18:36:51 10° 351° (N) 1,642 5.8 -4.9°
Maximum altitude 18:40:26 77° 78° (ENE) 487 2.5 -5.4°
Drops below altitude 10° 18:43:59 10° 165° (SSE) 1,624 4.8 -5.9°
Sets 18:46:03 0° 167° (SSE) 2,496 5.8 -6.2°
